Home   Weather   Namsos   Past weeks

Flag for Norway Past Weather in Namsos, Norway — Yesterday and Last 2 Weeks

Now
46 °F

Fog.


Feels Like: 43 °F
Forecast: 44 / 57 °F
Wind: 7 mph from Northeast

Location: Namsos Lufthavn

Current Time: Sep 26, 2016 at 11:00:26 PM

Latest Report: Sep 26, 2016 at 9:50 PM


Visibility: N/A

Pressure: 30.15 "Hg

Humidity: 100%

Dew Point: 46 °F

Location of NamsosLocation

Past Weather in Namsos — Graph

°F

Namsos Temperature Yesterday

Maximum temperature yesterday: 64 °F (at 4:20 PM)
Minimum temperature yesterday: 55 °F (at 9:50 PM)
Average temperature yesterday: 61 °F

High & Low Weather Summary for the Past Weeks

 TemperatureHumidityPressure
High72 °F (Sep 13, 4:20 PM)100% (Sep 12, 6:50 AM)30.21 "Hg (Sep 12, 6:50 AM)
Low45 °F (Sep 12, 6:50 AM)50% (Sep 13, 4:20 PM)29.89 "Hg (Sep 11, 9:20 PM)
Average57 °F81%30.07 "Hg
* Reported Sep 11 9:20 PM — Sep 26 9:50 PM, Namsos, Weather by CustomWeather, © 2016

Note: Actual official high and low records may vary slightly from our data, if they occured in-between our weather recording intervals... More about our weather records

Advertising

Namsos Weather History for the Previous 24 Hours

Scroll right to see more
 ConditionsComfort  
Time TempWeatherWind HumidityBarometerVisibility
9:50 PM
Mon, Sep 26
46 °FFog.7 mph100%30.15 "HgN/A
9:20 PM48 °FFog.2 mph94%30.15 "HgN/A
8:50 PM50 °FFog.8 mph94%30.15 "HgN/A
8:20 PM50 °FClear.9 mph94%30.12 "Hg10 mi
7:50 PM50 °FFog.9 mph94%30.12 "HgN/A
7:20 PM50 °FClear.8 mph100%30.12 "Hg10 mi
6:50 PM52 °FSunny.8 mph94%30.12 "Hg10 mi
5:50 PM54 °FScattered clouds.10 mph88%30.12 "HgN/A
5:20 PM52 °FPartly sunny.9 mph100%30.12 "HgN/A
4:50 PM52 °FPartly sunny.5 mph100%30.12 "HgN/A
4:20 PM52 °FPartly sunny.3 mph100%30.09 "HgN/A
3:50 PM52 °FPartly sunny.5 mph100%30.09 "HgN/A
3:20 PM52 °FLight rain. Broken clouds.5 mph94%30.09 "HgN/A
2:50 PM52 °FDrizzle. Broken clouds.6 mph94%30.09 "Hg4 mi
10:50 AM54 °FBroken clouds.5 mph88%30.01 "HgN/A
10:20 AM54 °FBroken clouds.6 mph88%30.01 "HgN/A
9:50 AM52 °FPartly sunny.6 mph88%30.01 "HgN/A
9:20 AM52 °FPartly sunny.6 mph88%29.98 "HgN/A
8:50 AM50 °FSunny.3 mph94%29.98 "Hg10 mi
7:50 AM52 °FSunny.3 mph82%29.95 "Hg10 mi
7:20 AM52 °FSunny.5 mph82%29.92 "Hg10 mi
6:50 AM54 °FClear.10 mph77%29.92 "Hg10 mi
6:20 AM54 °FClear.12 mph82%29.92 "Hg10 mi
5:50 AM54 °FClear.13 mph82%29.89 "Hg10 mi
Weather by CustomWeather, © 2016

See weather overviewHow to use our weather pages